Time,TemperatureF,DewpointF,PressureIn,WindDirection,WindDirectionDegrees,WindSpeedMPH,WindSpeedGustMPH,Humidity,HourlyPrecipIn,Conditions,Clouds,dailyrainin,SolarRadiationWatts/m^2,SoftwareType,DateUTC
2013-08-17 00:01:00,75.2,74.0,30.04,NE,46,3.0,11.0,96,0.00,,,2.40,0,Wunderground v.1.15,2013-08-17 04:01:00,
2013-08-17 00:03:00,75.2,74.0,30.04,NE,46,3.0,11.0,96,0.00,,,2.40,0,Wunderground v.1.15,2013-08-17 04:03:00,
2013-08-17 00:04:00,75.3,74.1,30.04,NE,46,2.0,11.0,96,0.00,,,2.40,0,Wunderground v.1.15,2013-08-17 04:04:00,
2013-08-17 00:06:00,75.3,74.1,30.04,NE,47,2.0,11.0,96,0.00,,,2.40,0,Wunderground v.1.15,2013-08-17 04:06:00,
2013-08-17 00:07:00,75.3,74.1,30.04,NE,47,3.0,11.0,96,0.00,,,2.40,0,Wunderground v.1.15,2013-08-17 04:07:00,
2013-08-17 00:12:00,75.4,74.2,30.03,NE,47,2.0,11.0,96,0.00,,,2.40,0,Wunderground v.1.15,2013-08-17 04:12:00,
2013-08-17 00:18:00,75.6,74.4,30.03,NE,47,2.0,11.0,96,0.00,,,2.40,0,Wunderground v.1.15,2013-08-17 04:18:00,
2013-08-17 00:24:00,75.7,74.5,30.04,NE,47,2.0,11.0,96,0.00,,,2.40,0,Wunderground v.1.15,2013-08-17 04:24:00,
2013-08-17 00:30:00,75.7,74.5,30.04,NE,47,2.0,11.0,96,0.00,,,2.40,0,Wunderground v.1.15,2013-08-17 04:30:00,
2013-08-17 00:35:00,75.8,74.6,30.04,NE,47,3.0,11.0,96,0.00,,,0.00,0,Wunderground v.1.15,2013-08-17 04:35:00,
2013-08-17 00:41:00,75.9,74.7,30.03,NE,47,2.0,11.0,96,0.00,,,0.00,0,Wunderground v.1.15,2013-08-17 04:41:00,
2013-08-17 00:47:00,76.0,74.8,30.03,NE,47,3.0,11.0,96,0.00,,,0.00,0,Wunderground v.1.15,2013-08-17 04:47:00,
2013-08-17 00:53:00,76.1,74.9,30.03,NE,47,3.0,11.0,96,0.00,,,0.00,0,Wunderground v.1.15,2013-08-17 04:53:00,
2013-08-17 00:59:00,76.2,75.3,30.03,NE,47,2.0,11.0,97,0.00,,,0.00,0,Wunderground v.1.15,2013-08-17 04:59:00,
2013-08-17 01:05:00,76.4,75.5,30.04,NE,47,1.0,11.0,97,0.00,,,0.00,0,Wunderground v.1.15,2013-08-17 05:05:00,
2013-08-17 01:11:00,76.5,75.6,30.04,NE,48,0.0,11.0,97,0.00,,,0.00,0,Wunderground v.1.15,2013-08-17 05:11:00,
2013-08-17 01:16:00,76.7,75.8,30.04,NE,48,0.0,11.0,97,0.00,,,0.00,0,Wunderground v.1.15,2013-08-17 05:16:00,
2013-08-17 01:22:00,76.8,75.9,30.04,NE,48,0.0,11.0,97,0.00,,,0.01,0,Wunderground v.1.15,2013-08-17 05:22:00,
2013-08-17 01:28:00,76.9,76.0,30.03,NE,47,0.0,11.0,97,0.00,,,0.01,0,Wunderground v.1.15,2013-08-17 05:28:00,
2013-08-17 01:34:00,77.1,76.2,30.03,NE,48,0.0,11.0,97,0.00,,,0.01,0,Wunderground v.1.15,2013-08-17 05:34:00,
2013-08-17 01:39:00,77.2,76.3,30.03,NE,47,0.0,11.0,97,0.00,,,0.01,0,Wunderground v.1.15,2013-08-17 05:39:00,
2013-08-17 01:45:00,77.2,76.3,30.03,NE,47,0.0,11.0,97,0.00,,,0.01,0,Wunderground v.1.15,2013-08-17 05:45:00,
2013-08-17 01:51:00,77.1,76.2,30.03,NE,47,0.0,11.0,97,0.00,,,0.01,0,Wunderground v.1.15,2013-08-17 05:51:00,
2013-08-17 01:57:00,77.1,76.2,30.03,NE,47,0.0,11.0,97,0.00,,,0.01,0,Wunderground v.1.15,2013-08-17 05:57:00,
2013-08-17 02:03:00,77.1,76.2,30.03,NE,47,1.0,11.0,97,0.00,,,0.01,0,Wunderground v.1.15,2013-08-17 06:03:00,
2013-08-17 02:09:00,77.1,76.2,30.02,NE,48,0.0,11.0,97,0.00,,,0.01,0,Wunderground v.1.15,2013-08-17 06:09:00,
2013-08-17 02:15:00,77.2,76.3,30.02,NE,48,0.0,11.0,97,0.00,,,0.01,0,Wunderground v.1.15,2013-08-17 06:15:00,
2013-08-17 02:20:00,77.2,76.3,30.02,NE,47,0.0,11.0,97,0.00,,,0.01,0,Wunderground v.1.15,2013-08-17 06:20:00,
2013-08-17 02:26:00,77.2,76.3,30.01,NE,48,0.0,11.0,97,0.00,,,0.01,0,Wunderground v.1.15,2013-08-17 06:26:00,
2013-08-17 02:32:00,77.3,76.4,30.01,NE,48,0.0,11.0,97,0.00,,,0.01,0,Wunderground v.1.15,2013-08-17 06:32:00,
2013-08-17 02:38:00,77.3,76.4,30.01,NE,47,0.0,11.0,97,0.00,,,0.01,0,Wunderground v.1.15,2013-08-17 06:38:00,
2013-08-17 02:43:00,77.3,76.4,30.01,NE,48,0.0,11.0,97,0.00,,,0.01,0,Wunderground v.1.15,2013-08-17 06:43:00,
2013-08-17 02:49:00,77.2,76.3,30.02,NE,48,0.0,11.0,97,0.00,,,0.01,0,Wunderground v.1.15,2013-08-17 06:49:00,
2013-08-17 02:55:00,77.3,76.4,30.01,NE,47,2.0,11.0,97,0.00,,,0.01,0,Wunderground v.1.15,2013-08-17 06:55:00,
2013-08-17 03:01:00,77.4,76.5,30.01,NE,47,1.0,11.0,97,0.00,,,0.01,0,Wunderground v.1.15,2013-08-17 07:01:00,
2013-08-17 03:07:00,77.5,76.6,30.01,NE,48,0.0,11.0,97,0.00,,,0.01,0,Wunderground v.1.15,2013-08-17 07:07:00,
2013-08-17 03:13:00,77.5,76.6,30.01,NE,48,0.0,11.0,97,0.00,,,0.01,0,Wunderground v.1.15,2013-08-17 07:13:00,
2013-08-17 03:19:00,77.6,76.7,30.01,NE,48,0.0,11.0,97,0.00,,,0.01,0,Wunderground v.1.15,2013-08-17 07:19:00,
2013-08-17 03:24:00,77.5,76.6,30.01,NE,48,1.0,11.0,97,0.00,,,0.01,0,Wunderground v.1.15,2013-08-17 07:24:00,
2013-08-17 03:30:00,77.6,76.7,30.01,NE,48,2.0,11.0,97,0.00,,,0.01,0,Wunderground v.1.15,2013-08-17 07:30:00,
2013-08-17 03:36:00,77.5,76.6,30.01,NE,47,2.0,11.0,97,0.00,,,0.01,0,Wunderground v.1.15,2013-08-17 07:36:00,
2013-08-17 03:42:00,77.5,76.6,30.00,NE,48,2.0,11.0,97,0.00,,,0.01,0,Wunderground v.1.15,2013-08-17 07:42:00,
2013-08-17 03:47:00,77.4,76.5,30.00,NE,47,2.0,11.0,97,0.00,,,0.01,0,Wunderground v.1.15,2013-08-17 07:47:00,
2013-08-17 03:53:00,77.4,76.5,30.00,NE,48,2.0,11.0,97,0.00,,,0.01,0,Wunderground v.1.15,2013-08-17 07:53:00,
2013-08-17 03:59:00,77.3,76.4,30.00,NE,48,3.0,11.0,97,0.00,,,0.01,0,Wunderground v.1.15,2013-08-17 07:59:00,
2013-08-17 04:05:00,77.3,76.4,30.00,NE,47,2.0,11.0,97,0.00,,,0.01,0,Wunderground v.1.15,2013-08-17 08:05:00,
2013-08-17 04:11:00,77.3,76.4,30.00,NE,47,3.0,11.0,97,0.00,,,0.01,0,Wunderground v.1.15,2013-08-17 08:11:00,
2013-08-17 04:17:00,77.2,76.3,30.00,NE,48,2.0,11.0,97,0.00,,,0.01,0,Wunderground v.1.15,2013-08-17 08:17:00,
2013-08-17 04:23:00,77.3,76.4,30.00,NE,48,2.0,11.0,97,0.00,,,0.01,0,Wunderground v.1.15,2013-08-17 08:23:00,
2013-08-17 04:28:00,77.2,76.3,30.00,NE,48,3.0,11.0,97,0.00,,,0.01,0,Wunderground v.1.15,2013-08-17 08:28:00,
2013-08-17 04:34:00,77.2,76.3,30.00,NE,48,3.0,11.0,97,0.00,,,0.01,0,Wunderground v.1.15,2013-08-17 08:34:00,
2013-08-17 04:40:00,77.2,76.3,30.00,NE,48,2.0,11.0,97,0.00,,,0.01,0,Wunderground v.1.15,2013-08-17 08:40:00,
2013-08-17 04:46:00,77.2,76.3,30.00,NE,48,2.0,11.0,97,0.00,,,0.01,0,Wunderground v.1.15,2013-08-17 08:46:00,
2013-08-17 04:51:00,77.2,76.3,30.00,NE,47,2.0,11.0,97,0.00,,,0.01,0,Wunderground v.1.15,2013-08-17 08:51:00,
2013-08-17 04:57:00,77.2,76.3,29.99,NE,48,2.0,11.0,97,0.00,,,0.01,0,Wunderground v.1.15,2013-08-17 08:57:00,
2013-08-17 05:03:00,77.3,76.4,29.99,NE,47,2.0,11.0,97,0.00,,,0.01,0,Wunderground v.1.15,2013-08-17 09:03:00,
2013-08-17 05:09:00,77.3,76.4,29.99,NE,48,2.0,11.0,97,0.00,,,0.01,0,Wunderground v.1.15,2013-08-17 09:09:00,
2013-08-17 05:15:00,77.3,76.4,29.99,NE,48,2.0,11.0,97,0.00,,,0.01,0,Wunderground v.1.15,2013-08-17 09:15:00,
2013-08-17 05:21:00,77.3,76.4,29.99,NE,48,2.0,11.0,97,0.00,,,0.01,0,Wunderground v.1.15,2013-08-17 09:21:00,
2013-08-17 05:27:00,77.4,76.8,29.99,NE,48,2.0,11.0,98,0.00,,,0.01,0,Wunderground v.1.15,2013-08-17 09:27:00,
2013-08-17 05:32:00,77.5,76.9,29.99,NE,48,2.0,11.0,98,0.00,,,0.01,0,Wunderground v.1.15,2013-08-17 09:32:00,
2013-08-17 05:38:00,77.6,77.0,29.99,NE,48,2.0,11.0,98,0.00,,,0.01,0,Wunderground v.1.15,2013-08-17 09:38:00,
2013-08-17 05:44:00,77.6,77.0,29.99,NE,49,2.0,11.0,98,0.00,,,0.01,0,Wunderground v.1.15,2013-08-17 09:44:00,
2013-08-17 05:50:00,77.6,77.0,29.99,NE,48,2.0,2.0,98,0.00,,,0.01,0,Wunderground v.1.15,2013-08-17 09:50:00,
2013-08-17 05:55:00,77.6,77.0,30.00,NE,49,1.0,11.0,98,0.00,,,0.01,0,Wunderground v.1.15,2013-08-17 09:55:00,
2013-08-17 06:01:00,77.6,77.0,30.00,NE,49,1.0,11.0,98,0.00,,,0.01,0,Wunderground v.1.15,2013-08-17 10:01:00,
2013-08-17 06:07:00,77.6,77.0,30.00,NE,49,1.0,11.0,98,0.00,,,0.01,0,Wunderground v.1.15,2013-08-17 10:07:00,
2013-08-17 06:13:00,77.6,77.0,30.00,NE,48,2.0,11.0,98,0.00,,,0.01,0,Wunderground v.1.15,2013-08-17 10:13:00,
2013-08-17 06:19:00,77.6,77.0,30.00,ENE,57,3.0,11.0,98,0.00,,,0.01,0,Wunderground v.1.15,2013-08-17 10:19:00,
2013-08-17 06:25:00,77.6,77.0,30.00,ENE,61,3.0,11.0,98,0.00,,,0.01,0,Wunderground v.1.15,2013-08-17 10:25:00,
2013-08-17 06:31:00,77.7,77.1,30.00,ENE,69,3.0,11.0,98,0.00,,,0.01,0,Wunderground v.1.15,2013-08-17 10:31:00,
2013-08-17 06:36:00,77.7,77.1,30.00,ENE,73,3.0,11.0,98,0.00,,,0.01,0,Wunderground v.1.15,2013-08-17 10:36:00,
2013-08-17 06:42:00,77.6,77.0,30.01,ENE,75,2.0,11.0,98,0.00,,,0.01,0,Wunderground v.1.15,2013-08-17 10:42:00,
2013-08-17 06:48:00,77.5,76.9,30.01,ENE,75,1.0,11.0,98,0.00,,,0.01,0,Wunderground v.1.15,2013-08-17 10:48:00,
2013-08-17 06:54:00,77.5,76.9,30.01,ENE,75,1.0,11.0,98,0.00,,,0.01,5,Wunderground v.1.15,2013-08-17 10:54:00,
2013-08-17 06:59:00,77.5,76.9,30.01,ENE,75,1.0,11.0,98,0.00,,,0.01,7,Wunderground v.1.15,2013-08-17 10:59:00,
2013-08-17 07:05:00,77.4,76.8,30.01,ENE,75,1.0,11.0,98,0.00,,,0.01,11,Wunderground v.1.15,2013-08-17 11:05:00,
2013-08-17 07:11:00,77.4,76.8,30.01,ENE,75,2.0,11.0,98,0.00,,,0.01,16,Wunderground v.1.15,2013-08-17 11:11:00,
2013-08-17 07:17:00,77.4,76.8,30.02,ENE,75,2.0,11.0,98,0.00,,,0.01,23,Wunderground v.1.15,2013-08-17 11:17:00,
2013-08-17 07:23:00,77.5,76.9,30.02,ENE,77,2.0,11.0,98,0.00,,,0.01,30,Wunderground v.1.15,2013-08-17 11:23:00,
2013-08-17 07:29:00,77.5,76.9,30.02,ENE,77,1.0,11.0,98,0.00,,,0.01,39,Wunderground v.1.15,2013-08-17 11:29:00,
2013-08-17 07:35:00,77.6,77.0,30.02,ENE,77,1.0,11.0,98,0.00,,,0.01,47,Wunderground v.1.15,2013-08-17 11:35:00,
2013-08-17 07:40:00,77.7,77.1,30.02,ENE,77,0.0,11.0,98,0.00,,,0.01,53,Wunderground v.1.15,2013-08-17 11:40:00,
2013-08-17 07:46:00,77.8,77.2,30.03,ENE,77,0.0,11.0,98,0.00,,,0.01,65,Wunderground v.1.15,2013-08-17 11:46:00,
2013-08-17 07:52:00,78.0,77.4,30.03,ENE,76,1.0,11.0,98,0.00,,,0.01,74,Wunderground v.1.15,2013-08-17 11:52:00,
2013-08-17 07:58:00,78.2,77.6,30.03,ENE,77,1.0,11.0,98,0.00,,,0.01,88,Wunderground v.1.15,2013-08-17 11:58:00,
2013-08-17 08:03:00,78.4,77.8,30.03,ENE,76,1.0,11.0,98,0.00,,,0.01,90,Wunderground v.1.15,2013-08-17 12:03:00,
2013-08-17 08:07:00,78.5,77.9,30.04,ENE,76,1.0,11.0,98,0.00,,,0.01,95,Wunderground v.1.15,2013-08-17 12:07:00,
2013-08-17 08:13:00,78.6,78.0,30.04,ENE,76,0.0,11.0,98,0.00,,,0.01,113,Wunderground v.1.15,2013-08-17 12:13:00,
2013-08-17 08:19:00,78.7,78.1,30.03,ENE,76,0.0,11.0,98,0.00,,,0.02,134,Wunderground v.1.15,2013-08-17 12:19:00,
2013-08-17 08:24:00,79.0,78.4,30.04,ENE,77,1.0,11.0,98,0.00,,,0.02,116,Wunderground v.1.15,2013-08-17 12:24:00,
2013-08-17 08:30:00,79.2,78.6,30.04,East,79,1.0,11.0,98,0.00,,,0.02,116,Wunderground v.1.15,2013-08-17 12:30:00,
2013-08-17 08:36:00,79.5,78.9,30.04,SSE,165,3.0,11.0,98,0.00,,,0.02,178,Wunderground v.1.15,2013-08-17 12:36:00,
2013-08-17 08:42:00,79.7,79.1,30.04,SSE,168,5.0,11.0,98,0.00,,,0.02,139,Wunderground v.1.15,2013-08-17 12:42:00,
2013-08-17 08:47:00,79.7,79.1,30.04,SSE,164,5.0,11.0,98,0.00,,,0.02,158,Wunderground v.1.15,2013-08-17 12:47:00,
2013-08-17 08:53:00,79.8,79.2,30.04,SSE,164,5.0,11.0,98,0.00,,,0.02,146,Wunderground v.1.15,2013-08-17 12:53:00,
2013-08-17 08:59:00,80.0,79.1,30.04,SSE,165,6.0,11.0,97,0.00,,,0.02,230,Wunderground v.1.15,2013-08-17 12:59:00,
2013-08-17 09:04:00,80.3,79.4,30.03,SSE,167,6.0,11.0,97,0.00,,,0.02,267,Wunderground v.1.15,2013-08-17 13:04:00,
2013-08-17 09:10:00,80.6,79.7,30.04,SSE,168,7.0,11.0,97,0.00,,,0.02,301,Wunderground v.1.15,2013-08-17 13:10:00,
2013-08-17 09:16:00,80.6,79.7,30.04,South,169,7.0,11.0,97,0.00,,,0.02,262,Wunderground v.1.15,2013-08-17 13:16:00,
2013-08-17 09:22:00,80.9,79.7,30.04,South,181,7.0,11.0,96,0.00,,,0.02,230,Wunderground v.1.15,2013-08-17 13:22:00,
2013-08-17 09:27:00,81.1,79.9,30.04,South,184,7.0,11.0,96,0.00,,,0.02,527,Wunderground v.1.15,2013-08-17 13:27:00,
2013-08-17 09:33:00,81.5,80.2,30.04,SSE,166,6.0,11.0,96,0.00,,,0.02,487,Wunderground v.1.15,2013-08-17 13:33:00,
2013-08-17 09:39:00,81.6,80.0,30.05,South,179,7.0,11.0,95,0.00,,,0.02,179,Wunderground v.1.15,2013-08-17 13:39:00,
2013-08-17 09:45:00,81.9,80.0,30.05,South,186,8.0,11.0,94,0.00,,,0.02,237,Wunderground v.1.15,2013-08-17 13:45:00,
2013-08-17 09:50:00,82.1,80.2,30.05,SSE,164,6.0,11.0,94,0.00,,,0.02,366,Wunderground v.1.15,2013-08-17 13:50:00,
2013-08-17 09:56:00,82.3,80.1,30.05,SSE,155,6.0,11.0,93,0.00,,,0.02,452,Wunderground v.1.15,2013-08-17 13:56:00,
2013-08-17 10:02:00,82.8,80.2,30.06,South,175,6.0,11.0,92,0.00,,,0.02,211,Wunderground v.1.15,2013-08-17 14:02:00,
2013-08-17 10:08:00,83.0,80.1,30.06,South,170,5.0,11.0,91,0.00,,,0.02,220,Wunderground v.1.15,2013-08-17 14:08:00,
2013-08-17 10:14:00,83.1,79.5,30.06,South,170,5.0,11.0,89,0.00,,,0.02,322,Wunderground v.1.15,2013-08-17 14:14:00,
2013-08-17 10:20:00,83.4,79.5,30.06,South,170,5.0,5.0,88,0.00,,,0.02,294,Wunderground v.1.15,2013-08-17 14:20:00,
2013-08-17 10:26:00,83.6,79.3,30.06,South,170,4.0,11.0,87,0.00,,,0.02,202,Wunderground v.1.15,2013-08-17 14:26:00,
2013-08-17 10:31:00,83.8,79.5,30.06,South,170,5.0,11.0,87,0.00,,,0.02,264,Wunderground v.1.15,2013-08-17 14:31:00,
2013-08-17 10:37:00,84.1,79.8,30.06,SSE,167,6.0,11.0,87,0.00,,,0.02,754,Wunderground v.1.15,2013-08-17 14:37:00,
2013-08-17 10:43:00,84.5,79.8,30.06,SSE,165,5.0,11.0,86,0.00,,,0.02,327,Wunderground v.1.15,2013-08-17 14:43:00,
2013-08-17 10:49:00,84.5,79.5,30.06,SSE,167,4.0,11.0,85,0.00,,,0.02,352,Wunderground v.1.15,2013-08-17 14:49:00,
2013-08-17 10:54:00,84.6,78.9,30.06,South,170,4.0,11.0,83,0.00,,,0.02,1007,Wunderground v.1.15,2013-08-17 14:54:00,
2013-08-17 11:00:00,85.1,79.4,30.06,South,173,3.0,11.0,83,0.00,,,0.02,844,Wunderground v.1.15,2013-08-17 15:00:00,
2013-08-17 11:06:00,85.6,79.5,30.05,SSE,165,5.0,11.0,82,0.00,,,0.02,981,Wunderground v.1.15,2013-08-17 15:06:00,
2013-08-17 11:12:00,86.1,78.8,30.05,SE,142,7.0,11.0,79,0.00,,,0.02,1016,Wunderground v.1.15,2013-08-17 15:12:00,
2013-08-17 11:18:00,86.8,79.1,30.05,SSE,154,6.0,11.0,78,0.00,,,0.02,907,Wunderground v.1.15,2013-08-17 15:18:00,
2013-08-17 11:24:00,86.8,79.1,30.05,ESE,119,6.0,11.0,78,0.00,,,0.02,694,Wunderground v.1.15,2013-08-17 15:24:00,
2013-08-17 11:30:00,86.8,78.3,30.05,SSE,160,7.0,11.0,76,0.00,,,0.02,728,Wunderground v.1.15,2013-08-17 15:30:00,
2013-08-17 11:35:00,86.9,78.8,30.05,SSE,152,8.0,11.0,77,0.00,,,0.02,824,Wunderground v.1.15,2013-08-17 15:35:00,
2013-08-17 11:41:00,87.1,78.6,30.05,SSE,149,8.0,11.0,76,0.00,,,0.02,884,Wunderground v.1.15,2013-08-17 15:41:00,
2013-08-17 11:47:00,87.2,77.9,30.05,SE,144,7.0,11.0,74,0.00,,,0.02,754,Wunderground v.1.15,2013-08-17 15:47:00,
2013-08-17 11:53:00,87.4,78.1,30.05,SSE,166,6.0,11.0,74,0.00,,,0.02,575,Wunderground v.1.15,2013-08-17 15:53:00,
2013-08-17 11:58:00,87.4,79.3,30.05,SSE,168,5.0,11.0,77,0.00,,,0.02,406,Wunderground v.1.15,2013-08-17 15:58:00,
2013-08-17 12:04:00,87.5,79.4,30.05,South,173,6.0,11.0,77,0.00,,,0.02,707,Wunderground v.1.15,2013-08-17 16:04:00,
2013-08-17 12:10:00,87.5,79.4,30.04,SSE,150,7.0,7.0,77,0.00,,,0.02,772,Wunderground v.1.15,2013-08-17 16:10:00,
2013-08-17 12:16:00,87.5,79.8,30.04,SSE,158,7.0,11.0,78,0.00,,,0.02,656,Wunderground v.1.15,2013-08-17 16:16:00,
2013-08-17 12:22:00,87.3,79.6,30.04,SSE,157,7.0,11.0,78,0.00,,,0.02,772,Wunderground v.1.15,2013-08-17 16:22:00,
2013-08-17 12:28:00,87.3,78.8,30.04,SE,143,6.0,11.0,76,0.00,,,0.02,719,Wunderground v.1.15,2013-08-17 16:28:00,
2013-08-17 12:34:00,87.7,78.8,30.03,SSE,153,5.0,11.0,75,0.00,,,0.02,856,Wunderground v.1.15,2013-08-17 16:34:00,
2013-08-17 12:39:00,87.8,78.1,30.03,SE,146,6.0,11.0,73,0.00,,,0.02,860,Wunderground v.1.15,2013-08-17 16:39:00,
2013-08-17 12:45:00,88.0,79.1,30.03,SSE,151,6.0,11.0,75,0.00,,,0.02,877,Wunderground v.1.15,2013-08-17 16:45:00,
2013-08-17 12:51:00,88.1,78.8,30.03,SSE,152,7.0,11.0,74,0.00,,,0.02,754,Wunderground v.1.15,2013-08-17 16:51:00,
2013-08-17 12:57:00,88.1,78.3,30.03,SSE,165,6.0,11.0,73,0.00,,,0.02,403,Wunderground v.1.15,2013-08-17 16:57:00,
2013-08-17 13:02:00,88.0,78.3,30.03,SSE,161,6.0,11.0,73,0.00,,,0.02,619,Wunderground v.1.15,2013-08-17 17:02:00,
2013-08-17 13:08:00,88.3,79.4,30.03,SSE,157,5.0,11.0,75,0.00,,,0.02,378,Wunderground v.1.15,2013-08-17 17:08:00,
2013-08-17 13:14:00,88.4,78.6,30.03,SSE,166,5.0,11.0,73,0.00,,,0.02,754,Wunderground v.1.15,2013-08-17 17:14:00,
2013-08-17 13:20:00,88.4,78.6,30.02,South,175,6.0,11.0,73,0.00,,,0.02,642,Wunderground v.1.15,2013-08-17 17:20:00,
2013-08-17 13:26:00,88.5,78.3,30.02,SSE,148,6.0,11.0,72,0.00,,,0.02,682,Wunderground v.1.15,2013-08-17 17:26:00,
2013-08-17 13:32:00,88.8,78.2,30.02,SSE,148,4.0,11.0,71,0.00,,,0.02,773,Wunderground v.1.15,2013-08-17 17:32:00,
2013-08-17 13:38:00,89.1,79.3,30.02,SSE,159,4.0,11.0,73,0.00,,,0.02,613,Wunderground v.1.15,2013-08-17 17:38:00,
2013-08-17 13:43:00,89.0,79.6,30.02,South,170,5.0,11.0,74,0.00,,,0.02,763,Wunderground v.1.15,2013-08-17 17:43:00,
2013-08-17 13:49:00,89.1,78.9,30.02,South,170,5.0,11.0,72,0.00,,,0.02,828,Wunderground v.1.15,2013-08-17 17:49:00,
2013-08-17 13:55:00,89.5,78.4,30.02,SSE,155,4.0,11.0,70,0.00,,,0.02,1032,Wunderground v.1.15,2013-08-17 17:55:00,
2013-08-17 14:01:00,89.5,79.3,30.02,SSE,155,6.0,11.0,72,0.00,,,0.02,1037,Wunderground v.1.15,2013-08-17 18:01:00,
2013-08-17 14:06:00,89.7,78.2,30.01,SE,145,6.0,11.0,69,0.00,,,0.02,1062,Wunderground v.1.15,2013-08-17 18:06:00,
2013-08-17 14:12:00,90.1,78.6,30.01,SSE,151,6.0,12.0,69,0.00,,,0.02,1007,Wunderground v.1.15,2013-08-17 18:12:00,
2013-08-17 14:18:00,90.2,79.5,30.01,SSE,159,7.0,12.0,71,0.00,,,0.02,962,Wunderground v.1.15,2013-08-17 18:18:00,
2013-08-17 14:24:00,90.1,79.0,30.01,SSE,163,7.0,11.0,70,0.00,,,0.02,854,Wunderground v.1.15,2013-08-17 18:24:00,
2013-08-17 14:30:00,90.3,78.3,30.01,SE,138,6.0,11.0,68,0.00,,,0.02,798,Wunderground v.1.15,2013-08-17 18:30:00,
2013-08-17 14:36:00,90.4,79.3,30.00,SSE,153,5.0,11.0,70,0.00,,,0.02,573,Wunderground v.1.15,2013-08-17 18:36:00,
2013-08-17 14:42:00,90.2,78.2,30.00,SE,128,5.0,11.0,68,0.00,,,0.02,766,Wunderground v.1.15,2013-08-17 18:42:00,
2013-08-17 14:47:00,90.5,78.5,30.00,ESE,120,5.0,11.0,68,0.00,,,0.02,320,Wunderground v.1.15,2013-08-17 18:47:00,
2013-08-17 14:53:00,90.8,78.3,29.99,SE,138,6.0,11.0,67,0.00,,,0.02,1067,Wunderground v.1.15,2013-08-17 18:53:00,
2013-08-17 14:59:00,91.4,78.4,29.99,SE,128,6.0,11.0,66,0.00,,,0.02,1104,Wunderground v.1.15,2013-08-17 18:59:00,
2013-08-17 15:05:00,91.9,78.9,29.99,SE,133,5.0,11.0,66,0.00,,,0.02,371,Wunderground v.1.15,2013-08-17 19:05:00,
2013-08-17 15:10:00,91.7,78.3,29.98,East,94,7.0,11.0,65,0.00,,,0.02,336,Wunderground v.1.15,2013-08-17 19:10:00,
2013-08-17 15:16:00,91.8,78.8,29.98,SE,138,7.0,11.0,66,0.00,,,0.02,1063,Wunderground v.1.15,2013-08-17 19:16:00,
2013-08-17 15:22:00,92.0,79.5,29.98,ESE,120,6.0,11.0,67,0.00,,,0.02,1072,Wunderground v.1.15,2013-08-17 19:22:00,
2013-08-17 15:28:00,91.8,80.2,29.98,SE,145,7.0,14.0,69,0.00,,,0.02,241,Wunderground v.1.15,2013-08-17 19:28:00,
2013-08-17 15:34:00,90.8,80.1,29.98,SE,138,10.0,16.0,71,0.00,,,0.02,272,Wunderground v.1.15,2013-08-17 19:34:00,
2013-08-17 15:40:00,90.2,79.1,29.98,SE,138,12.0,12.0,70,0.00,,,0.02,947,Wunderground v.1.15,2013-08-17 19:40:00,
2013-08-17 15:46:00,90.2,78.6,29.98,SE,138,13.0,17.0,69,0.00,,,0.02,918,Wunderground v.1.15,2013-08-17 19:46:00,
2013-08-17 15:51:00,90.3,78.7,29.98,SE,133,13.0,16.0,69,0.00,,,0.02,925,Wunderground v.1.15,2013-08-17 19:51:00,
2013-08-17 15:57:00,90.4,77.9,29.98,SE,138,13.0,16.0,67,0.00,,,0.02,946,Wunderground v.1.15,2013-08-17 19:57:00,
2013-08-17 16:03:00,90.0,78.0,29.98,SE,144,12.0,14.0,68,0.00,,,0.02,209,Wunderground v.1.15,2013-08-17 20:03:00,
2013-08-17 16:09:00,89.5,78.0,29.98,SE,138,10.0,14.0,69,0.00,,,0.02,153,Wunderground v.1.15,2013-08-17 20:09:00,
2013-08-17 16:14:00,89.2,78.1,29.98,SE,145,9.0,11.0,70,0.00,,,0.02,160,Wunderground v.1.15,2013-08-17 20:14:00,
2013-08-17 16:20:00,88.9,78.7,29.98,SE,138,8.0,11.0,72,0.00,,,0.02,207,Wunderground v.1.15,2013-08-17 20:20:00,
2013-08-17 16:26:00,88.5,79.1,29.97,SE,146,8.0,14.0,74,0.00,,,0.02,234,Wunderground v.1.15,2013-08-17 20:26:00,
2013-08-17 16:32:00,88.0,79.5,29.97,SE,146,8.0,11.0,76,0.00,,,0.02,265,Wunderground v.1.15,2013-08-17 20:32:00,
2013-08-17 16:38:00,87.6,77.9,29.97,SE,144,8.0,12.0,73,0.00,,,0.02,359,Wunderground v.1.15,2013-08-17 20:38:00,
2013-08-17 16:44:00,87.7,78.4,29.97,SE,128,8.0,11.0,74,0.00,,,0.02,383,Wunderground v.1.15,2013-08-17 20:44:00,
2013-08-17 16:50:00,88.2,77.6,29.98,ESE,121,9.0,9.0,71,0.00,,,0.02,926,Wunderground v.1.15,2013-08-17 20:50:00,
2013-08-17 16:55:00,88.6,78.0,29.98,ESE,119,9.0,11.0,71,0.00,,,0.02,445,Wunderground v.1.15,2013-08-17 20:55:00,
2013-08-17 17:01:00,88.7,77.7,29.98,SE,138,9.0,12.0,70,0.00,,,0.02,211,Wunderground v.1.15,2013-08-17 21:01:00,
2013-08-17 17:07:00,88.6,78.0,29.98,SE,128,9.0,12.0,71,0.00,,,0.02,141,Wunderground v.1.15,2013-08-17 21:07:00,
2013-08-17 17:13:00,88.4,78.2,29.98,SE,138,8.0,13.0,72,0.00,,,0.02,111,Wunderground v.1.15,2013-08-17 21:13:00,
2013-08-17 17:18:00,88.3,77.7,29.99,SSE,150,9.0,14.0,71,0.00,,,0.02,84,Wunderground v.1.15,2013-08-17 21:18:00,
2013-08-17 17:24:00,88.1,77.9,29.99,SSE,157,9.0,14.0,72,0.00,,,0.02,93,Wunderground v.1.15,2013-08-17 21:24:00,
2013-08-17 17:30:00,88.0,77.8,29.99,ESE,113,10.0,11.0,72,0.00,,,0.02,104,Wunderground v.1.15,2013-08-17 21:30:00,
2013-08-17 17:36:00,87.9,77.7,29.99,SE,142,9.0,11.0,72,0.00,,,0.02,113,Wunderground v.1.15,2013-08-17 21:36:00,
2013-08-17 17:42:00,87.7,78.4,29.99,SSE,167,10.0,20.0,74,0.00,,,0.02,35,Wunderground v.1.15,2013-08-17 21:42:00,
2013-08-17 17:48:00,85.4,78.9,30.00,South,188,19.0,31.0,81,0.00,,,0.03,46,Wunderground v.1.15,2013-08-17 21:48:00,
2013-08-17 17:54:00,83.3,78.0,30.00,South,170,23.0,23.0,84,0.18,,,0.05,49,Wunderground v.1.15,2013-08-17 21:54:00,
2013-08-17 17:59:00,82.9,77.6,30.00,South,171,20.0,23.0,84,0.07,,,0.06,72,Wunderground v.1.15,2013-08-17 21:59:00,
2013-08-17 18:05:00,82.1,78.2,30.00,SSE,167,17.0,20.0,88,0.41,,,0.09,91,Wunderground v.1.15,2013-08-17 22:05:00,
2013-08-17 18:11:00,81.5,77.9,30.00,South,169,16.0,16.0,89,0.24,,,0.11,84,Wunderground v.1.15,2013-08-17 22:11:00,
2013-08-17 18:17:00,80.6,77.1,30.00,SSE,148,13.0,16.0,89,0.07,,,0.11,69,Wunderground v.1.15,2013-08-17 22:17:00,
2013-08-17 18:22:00,80.1,76.9,30.01,South,175,9.0,12.0,90,0.04,,,0.11,58,Wunderground v.1.15,2013-08-17 22:22:00,
2013-08-17 18:28:00,80.0,76.5,30.01,South,183,9.0,12.0,89,0.00,,,0.11,46,Wunderground v.1.15,2013-08-17 22:28:00,
2013-08-17 18:34:00,79.9,76.4,30.01,South,184,8.0,11.0,89,0.00,,,0.11,37,Wunderground v.1.15,2013-08-17 22:34:00,
2013-08-17 18:40:00,80.0,76.5,30.01,South,186,5.0,11.0,89,0.00,,,0.11,35,Wunderground v.1.15,2013-08-17 22:40:00,
2013-08-17 18:46:00,80.0,76.8,30.02,South,186,5.0,11.0,90,0.00,,,0.11,26,Wunderground v.1.15,2013-08-17 22:46:00,
2013-08-17 18:52:00,80.0,76.8,30.02,South,185,4.0,11.0,90,0.00,,,0.11,23,Wunderground v.1.15,2013-08-17 22:52:00,
2013-08-17 18:58:00,80.0,76.5,30.02,South,186,4.0,11.0,89,0.00,,,0.11,21,Wunderground v.1.15,2013-08-17 22:58:00,
2013-08-17 19:03:00,80.0,76.5,30.03,South,186,3.0,11.0,89,0.00,,,0.11,23,Wunderground v.1.15,2013-08-17 23:03:00,
2013-08-17 19:09:00,79.9,76.7,30.04,SSW,195,3.0,11.0,90,0.00,,,0.11,16,Wunderground v.1.15,2013-08-17 23:09:00,
2013-08-17 19:15:00,79.8,76.3,30.05,SW,232,4.0,11.0,89,0.00,,,0.11,11,Wunderground v.1.15,2013-08-17 23:15:00,
2013-08-17 19:21:00,79.8,76.3,30.05,SW,232,3.0,11.0,89,0.00,,,0.11,9,Wunderground v.1.15,2013-08-17 23:21:00,
2013-08-17 19:26:00,79.9,76.4,30.04,SW,232,2.0,11.0,89,0.00,,,0.11,7,Wunderground v.1.15,2013-08-17 23:26:00,
2013-08-17 19:32:00,79.6,76.1,30.05,SW,232,0.0,11.0,89,0.00,,,0.11,5,Wunderground v.1.15,2013-08-17 23:32:00,
2013-08-17 19:38:00,79.3,76.1,30.05,SW,232,0.0,11.0,90,0.00,,,0.11,0,Wunderground v.1.15,2013-08-17 23:38:00,
2013-08-17 19:44:00,79.1,76.2,30.05,SW,232,1.0,11.0,91,0.00,,,0.11,0,Wunderground v.1.15,2013-08-17 23:44:00,
2013-08-17 19:50:00,79.0,76.1,30.05,SW,233,0.0,11.0,91,0.00,,,0.11,0,Wunderground v.1.15,2013-08-17 23:50:00,
2013-08-17 19:56:00,78.9,76.4,30.05,SW,232,0.0,11.0,92,0.00,,,0.11,0,Wunderground v.1.15,2013-08-17 23:56:00,
2013-08-17 20:02:00,78.7,75.8,30.05,SW,232,0.0,11.0,91,0.00,,,0.11,0,Wunderground v.1.15,2013-08-18 00:02:00,
2013-08-17 20:07:00,78.5,75.7,30.04,SW,232,0.0,11.0,91,0.00,,,0.11,0,Wunderground v.1.15,2013-08-18 00:07:00,
2013-08-17 20:13:00,78.4,75.9,30.05,SW,232,0.0,11.0,92,0.00,,,0.11,0,Wunderground v.1.15,2013-08-18 00:13:00,
2013-08-17 20:19:00,78.5,76.3,30.05,SW,232,0.0,11.0,93,0.00,,,0.11,0,Wunderground v.1.15,2013-08-18 00:19:00,
2013-08-17 20:25:00,78.5,76.0,30.05,SW,232,0.0,11.0,92,0.00,,,0.11,0,Wunderground v.1.15,2013-08-18 00:25:00,
2013-08-17 20:30:00,78.3,75.8,30.05,SW,232,0.0,11.0,92,0.00,,,0.11,0,Wunderground v.1.15,2013-08-18 00:30:00,
2013-08-17 20:36:00,78.3,76.1,30.05,SW,233,0.0,11.0,93,0.00,,,0.11,0,Wunderground v.1.15,2013-08-18 00:36:00,
2013-08-17 20:42:00,78.5,76.3,30.05,SW,232,0.0,11.0,93,0.00,,,0.11,0,Wunderground v.1.15,2013-08-18 00:42:00,
2013-08-17 20:48:00,78.6,76.4,30.05,SW,232,0.0,11.0,93,0.00,,,0.11,0,Wunderground v.1.15,2013-08-18 00:48:00,
2013-08-17 20:54:00,78.6,76.4,30.05,SW,232,0.0,11.0,93,0.00,,,0.11,0,Wunderground v.1.15,2013-08-18 00:54:00,
2013-08-17 21:00:00,78.5,76.3,30.05,SW,231,2.0,11.0,93,0.00,,,0.11,0,Wunderground v.1.15,2013-08-18 01:00:00,
2013-08-17 21:06:00,78.5,76.3,30.05,SW,231,3.0,11.0,93,0.00,,,0.11,0,Wunderground v.1.15,2013-08-18 01:06:00,
2013-08-17 21:11:00,78.6,76.4,30.06,SW,228,4.0,11.0,93,0.00,,,0.11,0,Wunderground v.1.15,2013-08-18 01:11:00,
2013-08-17 21:17:00,78.8,76.6,30.06,South,191,4.0,11.0,93,0.00,,,0.11,0,Wunderground v.1.15,2013-08-18 01:17:00,
2013-08-17 21:23:00,78.9,76.7,30.06,SE,138,4.0,11.0,93,0.00,,,0.11,0,Wunderground v.1.15,2013-08-18 01:23:00,
2013-08-17 21:29:00,79.0,76.8,30.06,SE,128,3.0,11.0,93,0.00,,,0.11,0,Wunderground v.1.15,2013-08-18 01:29:00,
2013-08-17 21:34:00,79.0,76.8,30.06,ESE,111,3.0,11.0,93,0.00,,,0.11,0,Wunderground v.1.15,2013-08-18 01:34:00,
2013-08-17 21:40:00,79.1,76.9,30.06,ESE,102,3.0,3.0,93,0.00,,,0.11,0,Wunderground v.1.15,2013-08-18 01:40:00,
2013-08-17 21:46:00,79.2,77.0,30.06,East,96,3.0,11.0,93,0.00,,,0.11,0,Wunderground v.1.15,2013-08-18 01:46:00,
2013-08-17 21:52:00,79.3,77.1,30.07,East,96,2.0,11.0,93,0.00,,,0.11,0,Wunderground v.1.15,2013-08-18 01:52:00,
2013-08-17 21:58:00,79.4,76.9,30.07,East,92,3.0,11.0,92,0.00,,,0.11,0,Wunderground v.1.15,2013-08-18 01:58:00,
2013-08-17 22:04:00,79.5,77.0,30.07,East,96,3.0,11.0,92,0.00,,,0.11,0,Wunderground v.1.15,2013-08-18 02:04:00,
2013-08-17 22:10:00,79.5,77.0,30.07,East,95,2.0,11.0,92,0.00,,,0.11,0,Wunderground v.1.15,2013-08-18 02:10:00,
2013-08-17 22:15:00,79.5,77.0,30.07,East,94,2.0,11.0,92,0.00,,,0.11,0,Wunderground v.1.15,2013-08-18 02:15:00,
2013-08-17 22:21:00,79.4,76.9,30.07,East,94,2.0,3.0,92,0.00,,,0.11,0,Wunderground v.1.15,2013-08-18 02:21:00,
2013-08-17 22:27:00,79.5,77.0,30.07,East,92,3.0,11.0,92,0.00,,,0.11,0,Wunderground v.1.15,2013-08-18 02:27:00,
2013-08-17 22:33:00,79.5,77.0,30.07,East,92,3.0,11.0,92,0.00,,,0.11,0,Wunderground v.1.15,2013-08-18 02:33:00,
2013-08-17 22:38:00,79.5,77.0,30.07,East,88,3.0,11.0,92,0.00,,,0.11,0,Wunderground v.1.15,2013-08-18 02:38:00,
2013-08-17 22:44:00,79.5,77.0,30.07,East,88,3.0,11.0,92,0.00,,,0.11,0,Wunderground v.1.15,2013-08-18 02:44:00,
2013-08-17 22:50:00,79.4,76.9,30.07,East,87,3.0,3.0,92,0.00,,,0.11,0,Wunderground v.1.15,2013-08-18 02:50:00,
2013-08-17 22:56:00,79.4,76.9,30.07,East,87,3.0,11.0,92,0.00,,,0.11,0,Wunderground v.1.15,2013-08-18 02:56:00,
2013-08-17 23:02:00,79.4,76.9,30.07,East,87,2.0,11.0,92,0.00,,,0.11,0,Wunderground v.1.15,2013-08-18 03:02:00,
2013-08-17 23:08:00,79.3,76.8,30.07,East,87,2.0,11.0,92,0.00,,,0.11,0,Wunderground v.1.15,2013-08-18 03:08:00,
2013-08-17 23:14:00,79.3,77.1,30.07,East,87,2.0,11.0,93,0.00,,,0.11,0,Wunderground v.1.15,2013-08-18 03:14:00,
2013-08-17 23:19:00,79.3,77.1,30.06,East,87,2.0,11.0,93,0.00,,,0.11,0,Wunderground v.1.15,2013-08-18 03:19:00,
2013-08-17 23:25:00,79.3,77.1,30.06,East,87,2.0,11.0,93,0.00,,,0.11,0,Wunderground v.1.15,2013-08-18 03:25:00,
2013-08-17 23:31:00,79.3,77.1,30.06,East,87,2.0,4.0,93,0.00,,,0.11,0,Wunderground v.1.15,2013-08-18 03:31:00,
2013-08-17 23:37:00,79.4,77.2,30.06,East,92,3.0,11.0,93,0.00,,,0.11,0,Wunderground v.1.15,2013-08-18 03:37:00,
2013-08-17 23:42:00,79.4,77.2,30.06,ESE,105,4.0,11.0,93,0.00,,,0.11,0,Wunderground v.1.15,2013-08-18 03:42:00,
2013-08-17 23:48:00,79.4,77.2,30.06,ESE,114,3.0,11.0,93,0.00,,,0.11,0,Wunderground v.1.15,2013-08-18 03:48:00,
2013-08-17 23:54:00,79.5,77.3,30.06,ESE,113,2.0,11.0,93,0.00,,,0.11,0,Wunderground v.1.15,2013-08-18 03:54:00,